Time,TemperatureF,DewpointF,PressureIn,WindDirection,WindDirectionDegrees,WindSpeedMPH,WindSpeedGustMPH,Humidity,HourlyPrecipIn,Conditions,Clouds,dailyrainin,SoftwareType,DateUTC
2013-03-11 17:52:00,52.0,-99.9,30.12,SSE,147,12.0,12.0,-999,-99.99,,,-99.99,,2013-03-11 21:52:00,
2013-03-11 18:23:00,52.0,-99.9,30.12,SSE,147,12.0,12.0,-999,-99.99,,,-99.99,,2013-03-11 22:23:00,
2013-03-11 18:33:00,52.0,-99.9,30.12,SSE,147,12.0,12.0,-999,-99.99,,,-99.99,,2013-03-11 22:33:00,
2013-03-11 18:43:00,52.0,-99.9,30.12,SSE,147,12.0,12.0,-999,-99.99,,,-99.99,,2013-03-11 22:43:00,
2013-03-11 18:52:00,51.0,-99.9,30.11,East,89,-999.0,9.0,-999,-99.99,,,-99.99,,2013-03-11 22:52:00,
2013-03-11 19:22:00,51.0,-99.9,30.11,East,89,-999.0,9.0,-999,-99.99,,,-99.99,,2013-03-11 23:22:00,
2013-03-11 19:33:00,51.0,-99.9,30.11,East,89,-999.0,9.0,-999,-99.99,,,-99.99,,2013-03-11 23:33:00,
2013-03-11 19:43:00,51.0,-99.9,30.11,East,89,-999.0,9.0,-999,-99.99,,,-99.99,,2013-03-11 23:43:00,
2013-03-11 19:52:00,50.0,-99.9,30.11,SE,146,9.0,14.0,-999,-99.99,,,-99.99,,2013-03-11 23:52:00,
2013-03-11 20:23:00,50.0,-99.9,30.11,SE,146,9.0,14.0,-999,-99.99,,,-99.99,,2013-03-12 00:23:00,
2013-03-11 20:33:00,50.0,-99.9,30.11,SE,146,9.0,14.0,-999,-99.99,,,-99.99,,2013-03-12 00:33:00,
2013-03-11 20:43:00,50.0,-99.9,30.11,SE,146,9.0,14.0,-999,-99.99,,,-99.99,,2013-03-12 00:43:00,
2013-03-11 20:52:00,49.0,-99.9,30.11,SE,136,5.0,7.0,-999,-99.99,,,-99.99,,2013-03-12 00:52:00,
2013-03-11 21:22:00,49.0,-99.9,30.11,SE,136,5.0,7.0,-999,-99.99,,,-99.99,,2013-03-12 01:22:00,
2013-03-11 21:33:00,49.0,-99.9,30.11,SE,136,5.0,7.0,-999,-99.99,,,-99.99,,2013-03-12 01:33:00,
2013-03-11 21:42:00,49.0,-99.9,30.11,SE,136,5.0,7.0,-999,-99.99,,,-99.99,,2013-03-12 01:42:00,
2013-03-11 21:52:00,49.0,-99.9,30.11,SW,226,-999.0,10.0,-999,-99.99,,,-99.99,,2013-03-12 01:52:00,
2013-03-11 22:22:00,49.0,-99.9,30.11,SW,226,-999.0,10.0,-999,-99.99,,,-99.99,,2013-03-12 02:22:00,
2013-03-11 22:32:00,49.0,-99.9,30.11,SW,226,-999.0,10.0,-999,-99.99,,,-99.99,,2013-03-12 02:32:00,
2013-03-11 22:43:00,49.0,-99.9,30.11,SW,226,-999.0,10.0,-999,-99.99,,,-99.99,,2013-03-12 02:43:00,
2013-03-11 22:52:00,49.0,-99.9,30.10,South,172,3.0,8.0,-999,-99.99,,,-99.99,,2013-03-12 02:52:00,
2013-03-11 23:22:00,49.0,-99.9,30.10,South,172,3.0,8.0,-999,-99.99,,,-99.99,,2013-03-12 03:22:00,
2013-03-11 23:32:00,49.0,-99.9,30.10,South,172,3.0,8.0,-999,-99.99,,,-99.99,,2013-03-12 03:32:00,
2013-03-11 23:43:00,49.0,-99.9,30.10,South,172,3.0,8.0,-999,-99.99,,,-99.99,,2013-03-12 03:43:00,
2013-03-11 23:52:00,49.0,-99.9,30.09,SSE,155,7.0,7.0,-999,-99.99,,,-99.99,,2013-03-12 03:52:00,